EW9592 Weather Reports


Display with metric or nautical units.
time (UTC)temp
F
wind
direction
speed
MPH
gust
MPH
rain 1hr
in
rain 24hr
in
rain mn
in
humidity
%
barometer
mb
20260906084601 72 93 0.0 0.0 0.00 1.00 0.00 91 1012.6
20260906083051 72 93 0.0 0.0 0.00 1.00 0.00 91 1012.6
20260906081554 72 93 0.0 0.0 0.00 1.00 0.00 91 1012.5
20260906080054 72 94 0.0 0.0 0.00 1.00 0.00 91 1012.5
20260906074549 72 93 0.0 0.0 0.00 1.00 0.00 91 1012.5
20260906073056 72 94 0.0 0.0 0.00 1.00 0.00 91 1012.4
20260906071545 72 93 0.0 0.0 0.00 1.00 0.00 91 1012.4
20260906070055 73 93 0.0 0.0 0.00 1.00 0.00 91 1012.4
20260906064543 73 93 0.0 0.0 0.00 1.00 0.00 91 1012.4
20260906063042 73 94 0.0 0.0 0.00 1.00 0.00 91 1012.4
20260906061552 73 93 0.0 0.0 0.00 1.00 0.00 91 1012.9
20260906060039 74 93 0.0 0.0 0.00 1.00 0.00 91 1013.0
20260906054538 74 93 0.0 0.0 0.00 1.00 0.00 91 1012.8
20260906053038 74 94 0.0 0.0 0.00 1.00 0.00 91 1012.7
20260906051533 74 94 0.0 0.0 0.00 1.00 0.00 91 1012.7
20260906050034 74 93 0.0 0.0 0.00 1.00 0.00 91 1012.8
20260906044530 75 93 0.0 0.0 0.00 1.00 0.00 91 1012.8
20260906043038 75 85 0.0 1.0 0.00 1.00 0.00 91 1012.6
20260906041524 75 70 0.0 0.0 0.00 1.00 0.00 91 1012.2
20260906040025 75 70 0.0 0.0 0.00 1.00 1.00 91 1012.3
20260906034525 75 70 0.0 0.0 0.00 1.00 1.00 91 1012.3
20260906033021 75 71 0.0 0.0 0.00 1.00 1.00 91 1012.1
20260906031521 75 70 0.0 0.0 0.00 1.00 1.00 91 1012.1
20260906030021 75 71 0.0 1.0 0.00 1.00 1.00 91 1012.1
20260906024519 75 348 0.0 0.0 0.00 1.00 1.00 91 1011.9
20260906023018 76 348 0.0 0.0 0.00 1.00 1.00 91 1012.0
20260906021518 76 348 0.0 0.0 0.00 1.00 1.00 91 1011.8
20260906020117 77 349 0.0 0.0 0.00 1.00 1.00 91 1011.7
20260906014525 77 349 0.0 0.0 0.00 1.00 1.00 91 1011.5
20260906013016 78 348 0.0 0.0 0.00 1.00 1.00 90 1011.7
20260906011515 78 348 0.0 0.0 0.00 1.00 1.00 90 1011.1
20260906010016 79 348 0.0 0.0 0.00 1.00 1.00 90 1011.1
20260906004514 80 348 0.0 0.0 0.00 1.00 1.00 90 1011.0
20260906003013 80 349 0.0 0.0 0.00 1.00 1.00 90 1011.1
20260906001512 81 348 0.0 0.0 0.00 1.00 1.00 89 1011.2
20260906000012 81 349 0.0 0.0 0.00 1.00 1.00 89 1011.2
20260905234511 82 349 0.0 0.0 0.00 1.00 1.00 89 1011.5
20260905233013 83 348 0.0 0.0 0.00 1.00 1.00 88 1011.6
20260905231514 83 349 0.0 0.0 0.00 1.00 1.00 87 1011.7
20260905230014 84 15 0.0 0.0 0.00 1.00 1.00 85 1011.3
20260905224510 85 15 0.0 0.0 0.00 1.00 1.00 84 1011.3
20260905223009 86 15 0.0 0.0 0.00 1.00 1.00 83 1010.9
20260905221508 87 15 0.0 0.0 0.00 1.00 1.00 82 1011.1
20260905220007 87 15 0.0 0.0 0.00 1.00 1.00 80 1011.1
20260905214507 88 15 0.0 0.0 0.00 1.00 1.00 79 1011.1
20260905213004 89 15 0.0 0.0 0.00 1.00 1.00 78 1011.2
20260905211504 88 15 0.0 0.0 0.00 1.00 1.00 77 1011.2
20260905210003 89 15 0.0 0.0 0.00 1.00 1.00 72 1011.3
20260905204502 89 15 0.0 1.0 0.00 1.00 1.00 71 1011.5
20260905203102 90 15 0.0 1.0 0.00 1.00 1.00 77 1011.7
20260905201558 89 146 0.0 1.0 0.00 1.00 1.00 69 1011.8
20260905200058 90 146 0.0 1.0 0.00 1.00 1.00 72 1012.0
20260905194552 89 147 0.0 0.0 0.00 1.00 1.00 65 1012.2
20260905193050 89 136 0.0 2.0 0.00 1.00 1.00 72 1012.4
20260905191549 89 187 0.0 1.0 0.00 1.00 1.00 64 1012.7
20260905190054 89 130 0.0 1.0 0.00 1.00 1.00 65 1012.8
20260905184556 89 105 0.0 4.0 0.00 1.00 1.00 67 1013.0
20260905183048 88 276 0.0 2.0 0.00 1.00 1.00 71 1013.1
20260905181544 88 229 0.0 1.0 0.00 1.00 1.00 64 1013.4
20260905180041 88 121 0.0 1.0 0.00 1.00 1.00 67 1013.6
20260905174539 87 229 0.0 1.0 0.00 1.00 1.00 71 1013.6
20260905173037 86 213 0.0 1.0 0.00 1.00 1.00 67 1013.8
20260905171538 86 248 0.0 1.0 0.00 1.00 1.00 69 1013.9
20260905170040 87 236 0.0 3.0 0.00 1.00 1.00 69 1014.1
20260905164537 86 108 0.0 1.0 0.00 1.00 1.00 72 1014.5
20260905163030 85 109 0.0 1.0 0.00 1.00 1.00 68 1014.8
20260905161527 84 129 0.0 4.0 0.00 1.00 1.00 75 1014.5
20260905160024 83 138 0.0 2.0 0.00 1.00 1.00 79 1014.6
20260905154520 81 243 0.0 1.0 0.00 1.00 1.00 78 1014.6
20260905153016 79 246 0.0 2.0 0.00 1.00 1.00 85 1014.5
20260905151513 78 166 0.0 3.0 0.00 1.00 1.00 85 1014.7
20260905150011 77 126 0.0 2.0 0.00 1.00 1.00 87 1014.6
20260905144511 75 219 0.0 3.0 0.00 1.00 1.00 88 1014.9
20260905143018 74 249 0.0 2.0 0.00 1.00 1.00 90 1015.0
20260905141505 73 162 0.0 3.0 0.00 1.00 1.00 91 1015.5
20260905140005 72 233 0.0 2.0 0.00 1.00 1.00 91 1015.4
20260905134509 71 262 0.0 1.0 0.00 1.00 1.00 92 1015.4
20260905133002 72 278 0.0 1.0 0.00 1.00 1.00 92 1015.7
20260905131501 72 282 0.0 0.0 0.00 1.00 1.00 92 1015.9
20260905130001 71 209 0.0 1.0 0.01 1.00 1.00 92 1016.2
20260905124559 71 270 0.0 2.0 0.21 1.00 1.00 92 1015.8
20260905123058 72 278 0.0 2.0 0.33 1.00 1.00 92 1015.7
20260905121555 72 212 0.0 3.0 0.33 1.00 1.00 92 1015.6
20260905120105 72 121 0.0 1.0 0.32 0.99 0.99 92 1014.1
20260905114552 72 298 0.0 2.0 0.10 0.77 0.77 92 1014.7
20260905113051 72 154 0.0 1.0 0.00 0.67 0.67 92 1014.7
20260905111607 72 224 0.0 0.0 0.00 0.67 0.67 92 1014.5
20260905110055 72 260 0.0 0.0 0.00 0.67 0.67 92 1014.5
20260905104549 72 260 0.0 1.0 0.00 0.67 0.67 92 1014.1
20260905103048 73 221 0.0 1.0 0.01 0.67 0.67 92 1013.9
20260905101549 73 215 0.0 0.0 0.52 0.67 0.67 92 1013.5
20260905100047 73 215 0.0 0.0 0.67 0.67 0.67 91 1013.2
20260905094546 73 214 0.0 0.0 0.67 0.67 0.67 91 1013.1
20260905093044 73 127 0.0 6.0 0.66 0.66 0.66 91 1013.4
20260905091540 75 8 2.0 6.0 0.12 0.12 0.12 91 1014.5
20260905090039 75 45 0.0 0.0 0.00 0.00 0.00 91 1013.0